Temperature
21 20 19 18 18 17 17 17 17 17 16 16 16 16 16 16 16 16 16 15 15 15 15 15 14 14 14 14 14 14 14 14 14 14 14 14 14 14 14 13 13 13 13
21 19 19 18 17 17 17 16 16 16 16 16 16 16 16 16 16 16 15 15 15 15 14 14 14 14 14 14 14 14 14 14 14 14 13 13 13 13 13 13 13 13 13
20 19 18 17 17 17 16 16 16 16 16 16 16 16 15 15 15 15 15 15 14 14 14 14 14 13 13 13 13 13 13 13 13 13 13 12 12 13 13 13 13 12 12
19 18 17 17 16 16 16 16 16 16 16 16 15 15 15 15 15 15 14 14 14 14 14 13 13 13 13 13 13 13 13 13 13 13 12 12 12 12 12 12 12 12 12
18 17 16 16 16 16 16 15 15 15 15 15 15 15 15 14 14 14 14 14 13 13 13 13 13 13 13 13 13 13 13 13 13 12 11 11 11 11 12 12 12 12 12
17 16 16 16 16 16 15 15 15 15 15 15 15 15 14 14 14 14 13 13 13 13 13 13 13 13 13 13 13 13 13 13 12 11 11 11 11 11 11 12 12 12 12
16 16 15 16 15 15 15 15 15 15 15 15 14 14 14 13 13 13 13 13 13 13 12 13 12 13 13 12 13 13 13 12 11 11 11 11 11 11 11 11 11 11 11
16 15 15 15 15 15 15 15 15 14 14 14 14 14 13 13 13 13 13 13 13 12 12 12 12 12 12 12 12 12 12 12 11 11 10 10 11 11 11 11 11 11 11
15 15 15 15 15 15 15 14 15 14 14 14 14 13 13 13 13 12 12 12 12 12 12 12 12 12 12 12 12 12 12 12 11 10 10 10 10 10 10 10 10 10 10
14 14 14 14 14 14 14 14 14 14 14 13 13 13 13 12 12 12 12 12 12 12 12 12 11 12 12 12 12 12 12 11 10 10 10 10 10 10 10 10 10 10 10
14 14 14 14 14 14 14 14 14 13 13 13 13 12 12 12 12 12 12 12 11 11 11 11 11 11 11 11 11 11 11 10 10 10 10 10 9 9 9 10 10 9 9
14 14 14 14 14 14 14 13 13 13 13 12 12 12 12 12 11 11 11 11 11 11 11 11 11 11 11 11 11 11 10 10 10 10 10 10 9 9 9 9 9 9 9
14 14 14 14 14 14 14 13 13 12 12 12 12 12 12 12 11 11 11 11 11 11 11 11 11 11 10 10 10 10 10 10 10 10 10 10 10 9 9 9 9 9 9
14 13 13 14 14 14 13 13 13 12 12 12 12 12 12 12 11 11 11 11 10 10 11 10 10 10 10 10 10 10 10 10 10 9 10 10 10 9 9 9 9 9 9
13 13 13 13 13 13 13 13 13 12 12 12 12 12 12 12 11 11 11 11 10 10 10 10 10 10 10 10 10 10 10 10 10 9 9 10 10 9 9 9 9 8 8
13 13 13 13 13 13 13 13 13 12 12 12 12 12 11 11 11 11 11 11 10 10 10 10 10 10 10 10 10 10 9 9 9 9 9 9 9 9 9 9 9 8 8
13 13 13 13 13 13 13 13 13 12 12 12 12 12 11 11 11 11 11 11 10 10 10 10 10 10 10 10 9 9 9 9 9 9 9 9 9 9 9 9 9 9 8
13 13 13 13 13 13 13 13 13 12 12 12 12 11 11 11 11 11 11 11 10 10 10 10 10 10 9 9 9 9 9 9 9 9 9 9 9 9 9 9 9 9 8
12 12 13 13 13 13 12 12 12 12 12 12 12 11 11 11 11 11 10 10 10 10 10 10 10 9 9 9 9 9 9 9 9 9 9 9 9 9 9 9 9 9 8
12 12 12 12 12 12 12 12 12 12 12 12 12 11 11 11 11 10 10 10 10 10 10 10 9 9 9 9 9 9 9 9 9 9 9 9 9 9 9 9 9 8 8
12 12 12 12 12 12 12 12 12 12 12 12 12 12 11 11 11 10 10 10 10 10 10 9 9 9 9 9 9 9 9 9 9 9 9 9 9 9 9 8 8 8 8
12 12 12 12 12 12 12 12 12 12 12 12 12 12 11 11 11 10 10 10 10 10 10 9 9 9 9 9 8 8 9 9 9 9 9 9 9 9 9 8 8 8 8
12 12 12 12 12 12 12 12 11 11 11 11 11 12 12 11 11 11 10 10 10 10 10 10 9 9 9 9 8 9 9 10 9 9 9 9 9 9 8 8 8 8 8
12 12 12 12 12 12 12 11 11 11 11 12 12 12 12 11 11 11 11 10 10 10 10 10 9 9 9 9 9 9 9 9 9 9 9 9 9 8 8 8 8 8 8
12 12 12 12 12 12 12 11 11 11 11 11 11 11 12 11 11 11 11 10 10 10 10 10 10 9 9 9 9 9 9 9 8 8 9 8 8 8 8 8 8 8 7
11 12 12 11 11 11 11 11 11 11 11 11 11 11 11 12 12 11 11 11 10 10 10 10 10 9 9 9 9 9 9 9 8 8 8 8 8 8 8 8 8 7 7
Wind_Speed
12 20 25 25 25 24 23 22 22 21 21 21 20 20 19 19 18 17 17 17 17 17 17 17 17 17 17 17 17 17 17 17 17 16 16 17 16 16 16 14 14 16 17
15 22 26 25 25 25 24 23 22 22 21 21 21 20 20 19 18 18 17 17 17 17 17 18 18 17 17 17 17 17 17 16 16 15 14 15 16 16 16 16 16 15 16
15 21 26 25 25 24 23 23 22 22 21 21 21 20 20 19 18 18 18 18 18 18 18 18 18 17 17 17 17 16 16 15 14 12 11 13 15 15 16 16 16 16 17
15 20 24 25 25 25 24 23 23 22 22 21 21 20 20 19 19 18 18 18 18 18 18 17 18 17 17 16 16 16 15 14 12 9 10 12 13 15 16 16 16 16 17
15 19 22 26 25 25 24 23 23 22 22 22 21 20 20 19 19 19 19 19 19 18 17 17 17 17 16 15 15 15 15 13 10 10 11 12 13 15 15 16 16 16 16
15 18 22 25 25 25 24 24 23 23 22 22 21 20 20 19 19 19 19 19 18 18 17 17 17 16 16 15 15 15 13 11 9 11 11 11 12 14 14 15 15 16 16
15 17 22 25 25 25 24 24 23 23 22 21 21 21 20 19 19 19 19 18 18 17 17 17 16 16 15 15 14 14 12 8 10 10 10 11 12 13 13 14 14 15 15
14 16 20 24 24 25 24 24 24 23 22 22 21 21 20 20 20 19 19 18 18 17 17 16 16 15 15 14 14 13 10 7 10 10 10 11 11 12 13 13 13 14 14
13 15 17 22 24 24 24 24 23 23 22 22 21 21 20 20 20 19 19 17 17 17 16 16 15 15 14 14 13 12 10 6 8 8 9 10 10 11 11 12 12 12 13
12 14 16 19 21 22 23 23 23 22 22 22 21 20 20 20 19 19 18 17 17 16 16 15 15 14 14 13 13 11 8 5 8 8 8 9 9 10 11 11 11 11 12
12 14 15 17 19 20 20 22 23 22 21 22 20 20 20 18 18 17 17 17 17 16 15 15 14 14 13 13 12 9 6 6 7 6 7 8 8 9 9 9 10 10 10
15 15 15 17 17 18 17 19 19 19 20 20 19 20 17 15 14 15 17 16 16 16 15 14 14 13 10 10 10 7 5 6 6 6 7 7 6 7 8 8 8 8 8
16 15 15 16 17 17 14 15 13 14 16 17 19 18 15 14 13 13 13 14 15 15 13 13 12 9 8 7 7 6 5 5 4 5 7 6 5 6 6 6 6 6 6
15 16 15 15 15 16 15 14 13 12 12 12 16 18 15 11 11 11 10 12 12 11 10 10 8 9 8 8 7 6 6 4 4 4 6 6 5 5 4 4 4 4 4
16 16 16 15 16 15 15 13 13 13 13 14 14 16 16 11 11 11 10 10 11 10 10 9 8 9 8 7 6 6 5 5 4 4 5 5 5 4 3 3 2 3 3
17 17 16 16 17 15 14 14 13 13 13 14 14 16 17 13 12 11 10 9 10 10 10 9 9 8 7 6 6 5 5 4 4 3 3 4 4 4 3 3 2 2 2
17 17 17 17 17 17 15 15 13 13 14 13 13 17 17 15 14 12 10 10 10 11 11 9 9 7 6 5 5 5 4 3 3 3 3 2 2 3 3 3 2 2 2
17 18 18 16 17 17 15 14 13 14 14 13 14 15 17 16 16 13 10 10 11 11 9 8 8 7 6 5 5 4 3 3 3 3 3 3 2 2 2 2 3 2 2
18 18 18 18 18 17 16 14 13 14 15 14 14 14 16 17 17 13 11 10 12 10 9 8 8 7 7 5 4 3 3 3 3 3 4 3 2 2 2 2 0 2 3
17 17 18 18 19 17 14 12 11 13 14 14 14 15 17 16 17 14 11 12 13 10 9 9 9 7 6 5 4 3 3 3 3 3 4 4 3 3 3 3 2 2 2
16 17 18 18 18 16 14 14 13 14 14 13 14 17 18 17 18 15 11 13 12 11 11 11 9 9 7 5 4 3 4 4 4 4 4 4 4 4 4 3 3 3 3
17 18 18 19 19 18 15 14 13 13 13 14 13 16 18 18 18 15 15 13 13 11 12 12 10 8 6 6 5 4 3 5 5 4 4 4 4 4 4 4 4 4 4
16 18 16 18 19 19 18 13 12 11 11 12 14 14 17 19 19 17 17 15 14 13 12 13 13 11 8 8 7 4 3 3 3 4 5 5 4 4 4 4 4 4 4
15 15 16 17 17 18 18 16 17 16 15 15 15 14 16 18 19 19 18 17 15 13 13 13 13 11 10 8 7 5 3 1 2 2 4 4 4 4 4 3 4 4 3
13 13 14 16 17 18 19 19 19 17 16 13 15 17 17 17 18 19 18 17 16 14 14 14 14 13 11 10 7 6 5 4 4 3 3 3 4 4 3 3 3 3 3
10 11 12 15 17 18 19 20 21 21 19 18 19 18 16 14 15 19 18 17 17 15 15 14 14 14 12 11 9 8 6 5 5 5 5 4 4 3 3 3 3 3 3
Wind_Direction
170 168 168 168 164 161 159 157 154 151 148 147 144 140 137 134 129 126 125 122 120 118 116 113 110 105 101 97 94 90 87 85 81 78 78 78 77 74 70 65 67 67 62
165 167 166 167 164 162 160 157 153 151 149 148 145 142 139 135 132 130 128 125 122 120 117 113 110 106 103 99 96 93 89 85 81 78 82 82 76 73 70 65 61 65 63
164 166 167 167 164 161 160 158 154 152 150 148 146 143 141 138 135 133 130 127 123 119 116 114 110 108 104 100 98 95 92 87 82 80 84 83 77 72 70 68 67 67 65
166 168 169 166 164 162 160 158 155 153 152 149 147 144 142 139 136 134 132 127 124 120 117 115 112 108 105 102 99 97 94 88 82 81 79 78 77 73 71 69 68 67 65
169 171 167 165 165 163 161 159 156 155 153 150 148 146 143 141 138 136 132 128 125 122 120 117 114 111 108 105 102 99 95 90 88 84 81 79 77 74 73 71 68 67 66
173 172 167 167 166 164 162 160 158 156 154 152 150 148 145 143 139 135 131 129 127 125 123 120 117 115 112 108 105 101 98 97 99 85 82 79 78 76 74 74 70 67 64
175 173 169 168 167 165 163 161 159 157 156 155 153 150 148 144 139 136 134 132 132 130 127 124 121 117 116 111 108 104 100 92 91 88 83 79 78 77 76 76 72 68 64
176 173 170 169 168 166 164 162 159 159 158 157 155 152 149 146 142 139 137 136 136 134 131 128 125 121 118 114 111 107 103 99 98 91 86 83 80 80 79 76 72 70 66
177 176 173 172 171 167 164 162 161 160 159 157 155 152 149 147 146 144 141 140 139 135 133 131 128 124 120 116 113 109 102 90 99 91 87 82 80 83 79 76 74 72 68
180 181 178 175 173 171 167 162 160 160 160 157 153 149 147 146 147 146 144 141 139 137 136 133 130 126 122 118 116 113 115 126 100 98 89 84 82 85 82 79 76 74 69
186 187 184 180 176 172 169 165 162 160 159 155 152 148 150 153 150 149 144 142 142 141 138 134 130 127 125 120 117 122 138 117 107 93 86 83 87 87 86 82 78 74 70
191 190 188 184 179 173 168 167 169 168 164 164 162 160 161 156 151 146 140 142 142 140 138 135 131 133 140 134 130 148 130 124 113 101 88 79 89 95 90 84 78 75 70
196 191 191 187 181 176 170 169 170 169 168 168 166 165 160 153 150 148 150 148 148 148 145 141 146 146 144 137 145 142 130 126 116 108 94 74 85 93 93 87 82 78 70
202 198 193 188 185 180 174 172 171 169 169 168 168 166 162 159 160 160 160 160 158 158 152 155 152 149 145 146 149 142 140 136 127 113 95 74 73 78 90 89 85 78 67
208 203 197 190 188 183 177 175 174 172 170 169 167 170 168 165 166 165 163 161 162 160 160 160 159 155 153 151 150 149 148 146 141 129 118 88 67 66 70 79 79 69 52
212 207 200 195 190 185 182 178 175 173 171 171 171 174 173 170 170 169 165 164 165 165 164 166 163 160 157 158 156 156 156 154 154 153 140 125 91 67 50 42 44 42 29
215 209 204 199 192 188 185 182 176 174 173 174 174 177 177 175 173 172 169 169 169 168 168 168 163 166 162 164 167 163 165 169 174 174 168 171 150 115 73 38 34 20 1
216 210 205 200 194 190 187 183 180 176 175 177 176 178 180 178 177 175 174 174 171 171 172 170 170 172 172 176 173 171 181 182 196 190 188 190 188 180 132 74 27 4 341
216 210 205 200 195 190 186 184 184 179 178 179 178 180 182 181 181 180 179 176 174 175 177 175 179 180 178 178 180 184 197 203 199 200 201 195 193 202 210 141 21 343 333
215 211 206 201 196 189 185 184 185 182 181 182 182 183 183 184 185 184 182 181 179 179 180 181 180 183 185 179 179 196 205 206 209 208 207 202 202 212 232 242 252 250 302
213 210 205 200 195 189 186 186 186 187 183 184 185 185 186 186 187 187 185 185 185 187 187 186 182 181 184 180 187 199 204 209 215 208 212 214 209 218 234 244 256 268 269
211 209 205 201 197 194 192 190 191 189 188 186 185 187 189 189 190 190 190 189 189 190 190 188 185 187 182 189 197 199 207 197 204 215 214 219 226 221 230 239 248 257 274
210 207 204 201 199 197 192 188 187 189 188 187 188 188 191 192 193 193 194 193 192 193 193 192 191 193 189 191 203 208 213 214 186 190 209 216 222 231 232 233 242 255 270
212 207 204 201 199 197 193 192 191 194 194 194 189 188 190 194 195 196 196 197 195 196 196 196 197 198 195 192 197 221 240 244 223 197 191 204 217 231 233 228 239 246 262
213 208 204 201 200 198 197 196 198 203 200 193 188 188 190 193 196 197 198 198 198 198 199 197 196 199 199 200 196 195 207 219 237 241 232 212 212 212 226 239 240 242 252
219 211 207 204 204 200 200 200 202 204 199 193 189 188 190 192 195 198 199 199 199 199 199 197 196 199 201 203 202 200 199 203 211 220 239 248 249 222 216 228 239 240 252
Height
1480 1483 1485 1489 1493 1496 1499 1502 1505 1508 1510 1513 1515 1516 1518 1519 1521 1522 1523 1524 1525 1526 1527 1528 1528 1528 1529 1529 1529 1529 1529 1529 1529 1529 1529 1529 1529 1528 1528 1528 1528 1527 1526
1480 1482 1484 1488 1492 1495 1498 1502 1505 1507 1510 1512 1514 1516 1518 1519 1521 1522 1524 1525 1526 1527 1528 1528 1529 1529 1529 1530 1530 1530 1530 1530 1530 1531 1531 1530 1530 1530 1529 1529 1529 1528 1528
1479 1481 1484 1487 1491 1494 1498 1501 1504 1507 1510 1512 1514 1516 1518 1519 1521 1522 1524 1525 1526 1527 1528 1529 1529 1530 1530 1531 1531 1531 1531 1531 1532 1532 1532 1533 1532 1531 1531 1530 1530 1530 1529
1479 1481 1483 1487 1490 1494 1497 1501 1504 1506 1509 1512 1514 1516 1518 1519 1521 1523 1524 1525 1526 1527 1528 1529 1530 1531 1531 1531 1532 1532 1532 1533 1533 1533 1534 1534 1534 1533 1532 1532 1531 1531 1530
1479 1481 1483 1486 1490 1493 1497 1500 1503 1506 1509 1511 1514 1516 1518 1519 1521 1523 1524 1525 1526 1528 1529 1530 1530 1531 1532 1532 1533 1533 1534 1534 1535 1535 1535 1535 1535 1534 1533 1533 1533 1532 1532
1478 1480 1483 1486 1489 1493 1496 1499 1502 1505 1508 1511 1513 1515 1517 1519 1521 1522 1524 1525 1527 1528 1529 1530 1531 1532 1533 1533 1534 1534 1535 1535 1536 1537 1537 1537 1536 1535 1535 1534 1534 1534 1533
1477 1480 1482 1485 1489 1492 1496 1499 1502 1505 1508 1510 1513 1515 1517 1519 1521 1522 1524 1525 1527 1528 1530 1531 1532 1533 1534 1534 1535 1535 1536 1536 1538 1538 1538 1538 1537 1537 1536 1536 1535 1535 1534
1476 1479 1482 1485 1488 1492 1495 1498 1501 1504 1507 1510 1512 1515 1517 1519 1521 1522 1524 1526 1527 1529 1530 1531 1533 1533 1534 1535 1536 1536 1537 1538 1538 1539 1539 1539 1538 1538 1537 1537 1536 1536 1535
1475 1478 1481 1484 1488 1491 1494 1497 1500 1503 1506 1509 1512 1514 1516 1519 1520 1522 1524 1526 1528 1529 1531 1532 1533 1534 1535 1536 1537 1537 1538 1539 1540 1540 1540 1540 1539 1539 1538 1538 1537 1537 1536
1474 1477 1480 1483 1486 1490 1493 1496 1499 1502 1505 1508 1511 1514 1516 1518 1520 1522 1524 1526 1528 1529 1531 1532 1534 1535 1536 1537 1537 1538 1539 1540 1541 1541 1541 1540 1540 1540 1539 1539 1538 1538 1537
1472 1475 1478 1481 1484 1488 1491 1494 1498 1501 1505 1508 1510 1513 1516 1518 1520 1522 1524 1526 1528 1530 1531 1533 1534 1535 1536 1537 1538 1539 1540 1541 1542 1542 1542 1541 1541 1541 1540 1540 1539 1539 1538
1469 1472 1475 1478 1482 1485 1489 1492 1496 1500 1503 1506 1509 1512 1515 1518 1520 1522 1524 1526 1528 1530 1531 1533 1534 1536 1537 1538 1539 1540 1541 1542 1542 1542 1542 1541 1542 1542 1541 1541 1540 1539 1538
1466 1469 1472 1475 1479 1482 1485 1489 1493 1497 1501 1504 1508 1510 1513 1516 1518 1521 1523 1526 1528 1530 1532 1533 1535 1536 1538 1538 1539 1540 1541 1542 1543 1543 1542 1542 1542 1542 1541 1541 1541 1540 1539
1463 1466 1469 1472 1475 1479 1483 1486 1490 1494 1497 1501 1505 1508 1511 1514 1516 1519 1522 1524 1527 1529 1531 1533 1535 1536 1537 1538 1540 1540 1541 1542 1543 1543 1542 1542 1542 1542 1542 1541 1541 1540 1539
1459 1462 1465 1468 1471 1475 1479 1483 1487 1491 1495 1499 1502 1506 1509 1512 1515 1518 1520 1523 1526 1528 1530 1532 1534 1536 1537 1538 1539 1540 1541 1542 1542 1542 1542 1542 1542 1542 1541 1541 1541 1540 1539
1455 1458 1461 1464 1468 1472 1475 1479 1483 1488 1492 1496 1499 1503 1507 1510 1513 1516 1518 1521 1524 1526 1529 1531 1533 1535 1537 1538 1539 1540 1541 1541 1542 1542 1542 1542 1542 1541 1541 1541 1540 1540 1539
1451 1454 1457 1460 1464 1467 1471 1476 1480 1484 1489 1493 1496 1500 1504 1508 1511 1514 1517 1519 1522 1525 1527 1530 1532 1534 1536 1537 1538 1539 1540 1540 1541 1541 1541 1541 1541 1541 1540 1540 1539 1539 1538
1446 1449 1452 1456 1459 1463 1467 1472 1477 1481 1485 1490 1494 1497 1501 1505 1509 1512 1515 1517 1520 1523 1525 1528 1530 1532 1534 1536 1537 1538 1539 1539 1540 1540 1540 1540 1540 1540 1539 1539 1538 1538 1537
1440 1443 1447 1450 1454 1458 1463 1468 1473 1477 1481 1486 1490 1494 1498 1502 1506 1509 1512 1515 1518 1521 1523 1526 1528 1531 1533 1535 1536 1537 1537 1538 1538 1538 1539 1539 1539 1539 1538 1538 1537 1536 1535
1435 1438 1441 1445 1449 1454 1458 1464 1468 1472 1476 1481 1486 1490 1494 1498 1502 1506 1509 1512 1515 1518 1521 1523 1526 1529 1531 1533 1534 1535 1536 1536 1536 1537 1537 1537 1537 1537 1537 1536 1535 1534 1533
1429 1432 1435 1439 1443 1448 1452 1457 1462 1466 1471 1476 1481 1486 1490 1495 1499 1502 1506 1509 1512 1515 1518 1521 1524 1526 1528 1530 1533 1534 1534 1534 1535 1535 1535 1535 1535 1535 1535 1534 1533 1532 1531
1422 1426 1429 1433 1437 1442 1447 1452 1457 1462 1466 1471 1476 1481 1486 1490 1494 1498 1502 1506 1509 1512 1515 1518 1520 1523 1525 1528 1530 1533 1534 1535 1533 1533 1533 1533 1533 1533 1532 1531 1531 1530 1528
1417 1420 1423 1427 1432 1436 1441 1447 1453 1458 1461 1466 1470 1475 1480 1485 1490 1494 1498 1502 1505 1508 1511 1514 1517 1520 1522 1525 1527 1530 1531 1531 1532 1531 1530 1530 1531 1530 1530 1529 1528 1527 1525
1412 1415 1419 1422 1426 1431 1436 1440 1445 1448 1452 1457 1463 1469 1475 1480 1485 1489 1494 1498 1501 1504 1508 1511 1514 1517 1519 1521 1524 1525 1528 1528 1529 1530 1529 1528 1528 1528 1527 1526 1525 1524 1522
1407 1410 1413 1417 1421 1425 1429 1434 1439 1443 1448 1454 1459 1464 1470 1475 1480 1484 1489 1493 1497 1500 1504 1507 1510 1513 1516 1518 1520 1522 1523 1524 1526 1527 1527 1527 1526 1525 1524 1523 1522 1520 1519
1403 1405 1409 1412 1416 1420 1424 1428 1433 1437 1443 1448 1452 1458 1463 1469 1474 1479 1483 1488 1492 1495 1499 1502 1506 1509 1512 1514 1516 1518 1520 1521 1522 1523 1524 1524 1524 1522 1521 1520 1519 1517 1515